My Profile
  1. Member Settings
  2. My Devices
  3. Sign Out
        More Settings
      Elev 319 ft, 39.257 °N 94.674 °W

      Kansas City, MO

      Kansas City Intl Airport Station96°

      Day High & Low

      High
      32°F
      Low
      18°F

      Daily Observations

      TimeTemperatureDew PointHumidityWindWind SpeedWind GustPressurePrecip.Condition
      11:53 PM 32 °F 32 °F 100 % NE 8 mph - 28.39 in 0.05 in Light Snow
      11:21 PM 32 °F 32 °F 100 % ENE 10 mph - 28.42 in 0.02 in Light Snow
      10:53 PM 32 °F 32 °F 100 % ENE 10 mph - 28.42 in 0.05 in Light Snow
      10:40 PM 33 °F 32 °F 96 % E 10 mph - 28.44 in 0.04 in Light Snow
      10:15 PM 33 °F 32 °F 96 % ENE 14 mph - 28.44 in 0.02 in Light Snow
      9:53 PM 33 °F 32 °F 96 % ENE 10 mph - 28.47 in 0 in Light Snow
      8:53 PM 33 °F 31 °F 92 % E 14 mph 26 mph 28.47 in 0 in Light Snow
      8:18 PM 33 °F 31 °F 92 % E 16 mph 26 mph 28.5 in 0 in Light Snow
      8:00 PM 33 °F 32 °F 96 % E 17 mph - 28.52 in 0 in Light Snow
      7:53 PM 33 °F 32 °F 96 % E 15 mph 23 mph 28.53 in 0.02 in Light Snow
      7:35 PM 33 °F 32 °F 96 % E 16 mph 26 mph 28.53 in 0.02 in Light Snow
      6:53 PM 33 °F 32 °F 96 % E 15 mph 25 mph 28.55 in 0.01 in Light Snow
      6:45 PM 33 °F 32 °F 96 % E 16 mph 29 mph 28.56 in 0 in Light Snow
      6:13 PM 33 °F 32 °F 96 % E 18 mph 25 mph 28.56 in 0 in Light Snow
      5:53 PM 33 °F 32 °F 96 % E 14 mph 24 mph 28.55 in 0.01 in Light Snow
      5:30 PM 33 °F 32 °F 96 % E 17 mph - 28.54 in 0.01 in Light Snow
      4:53 PM 33 °F 32 °F 96 % E 16 mph - 28.57 in 0.01 in Light Snow
      4:19 PM 33 °F 32 °F 96 % E 14 mph - 28.58 in 0.01 in Light Snow
      3:53 PM 33 °F 32 °F 96 % E 15 mph 26 mph 28.58 in 0.05 in Light Snow
      2:53 PM 33 °F 32 °F 96 % E 14 mph 28 mph 28.6 in 0.05 in Light Snow
      2:34 PM 33 °F 32 °F 96 % E 14 mph - 28.6 in 0.03 in Light Snow
      2:14 PM 33 °F 32 °F 96 % E 15 mph - 28.61 in 0.02 in Light Snow
      2:10 PM 33 °F 32 °F 96 % E 14 mph - 28.61 in 0.02 in Light Snow
      1:53 PM 33 °F 32 °F 96 % E 16 mph 24 mph 28.62 in 0.07 in Light Snow
      1:32 PM 33 °F 32 °F 96 % E 12 mph - 28.65 in 0.05 in Light Snow
      12:53 PM 33 °F 32 °F 96 % E 9 mph - 28.68 in 0.06 in Light Snow
      12:45 PM 33 °F 32 °F 96 % E 10 mph - 28.69 in 0.05 in Light Snow
      12:18 PM 33 °F 32 °F 96 % E 10 mph - 28.71 in 0.02 in Light Snow
      12:03 PM 33 °F 32 °F 96 % E 10 mph - 28.73 in 0.01 in Light Snow
      11:53 AM 33 °F 32 °F 96 % E 10 mph - 28.75 in 0.12 in Snow
      11:15 AM 33 °F 32 °F 96 % E 10 mph - 28.79 in 0.06 in Snow
      10:53 AM 34 °F 32 °F 92 % ESE 12 mph - 28.81 in 0.01 in Light Snow
      10:40 AM 36 °F 32 °F 86 % E 10 mph - 28.82 in 0 in Light Snow
      10:33 AM 36 °F 31 °F 82 % ESE 10 mph - 28.82 in 0 in Light Snow
      9:53 AM 35 °F 31 °F 85 % E 10 mph - 28.81 in 0 in Cloudy
      8:53 AM 34 °F 31 °F 89 % NE 17 mph - 28.78 in 0.03 in Light Rain
      8:26 AM 34 °F 31 °F 89 % ENE 7 mph - 28.8 in 0.03 in Light Rain
      7:53 AM 34 °F 29 °F 82 % SE 7 mph - 28.82 in 0.01 in Light Rain
      6:53 AM 34 °F 28 °F 79 % ESE 9 mph - 28.81 in 0 in Cloudy
      5:53 AM 34 °F 28 °F 79 % ESE 15 mph - 28.81 in 0 in Cloudy
      4:53 AM 33 °F 27 °F 78 % ESE 13 mph - 28.82 in 0 in Cloudy
      3:53 AM 33 °F 27 °F 78 % E 14 mph - 28.87 in 0 in Cloudy
      2:53 AM 33 °F 27 °F 78 % ESE 14 mph - 28.89 in 0 in Cloudy
      1:53 AM 33 °F 27 °F 78 % ESE 13 mph - 28.92 in 0 in Cloudy
      12:53 AM 32 °F 27 °F 82 % ESE 13 mph - 28.93 in 0 in Cloudy

      Charts

      Temperature
      Precipitation
      Wind
      essentialaccessibility.com
      We recognize our responsibility to use data and technology for good. We may use or share your data with our data vendors. Take control of your data.
      Glossary